DECAYED

STARLINK-2009, 47633 (Decayed)

Orbit data source: Space-Track

STARLINK-2009, 47633 was a payload satellite owned by SpaceX/Seattle (US) in LEO that was launched on Tue, 16 Feb 2021 UTC via an FALCON 9 launch vehicle from the Air Force Eastern Test Range (AFETR). Payload-class satellites include a variety of spacecraft equipped with specific instruments for various scientific and technological missions. These include communications satellites like Starlink; space stations such as the ISS; scientific satellites like the Hubble; Earth observation satellites from companies like Planet Labs, Umbra, and HawkEye 360; GPS; miniature CubeSats for education and research; and military/defense satellites.

Not visible in the next 10 days
Identifier
47633, 2021-012P
Orbit
Decayed
Country
Flag of USUS
Related business
Manufacturer
SpaceX/Seattle
Mission
Decayed Commercial Communications
Bus & Motor
STARLINK, Unknown motor
Mass
260 kg wet, ~248 kg dry
Launch date (UTC)
2021-02-16 (5 years ago)
Launch vehicle
FALCON 9
Launch site
Air Force Eastern Test Range (AFETR)
Object type
Payload
Rocket body
Debris
Shape & HBR
Box + 1 Pan, 10.1 m
Radar Cross Section
13.562 m², Large (>1 m²)

Expand to show TLE details & history
Last TLE update: 8 months ago

TLE from 8 months ago
0 STARLINK-2009
1 47633U 21012P   25096.95345604  .21961342  12632-4  38925-3 0  9993
2 47633  53.0157  89.2143 0004575 320.6925 125.7054 16.47525592229475
Epoch: 2025-04-06T22:52Z
TLE epoch observation values (Epoch: 2025-04-06T22:52:58.601Z)
Latitude
53.02815°
Longitude
-5.41616°
Altitude
154.038 km
Speed
7.819 km/s
True Right ascension
11h 33m 12s
True Declination
52° 50' 51"
Sunlit
Object was in full shadow at epoch
Visualization orbit readout
Latitude
Unknown
Longitude
Unknown
Altitude
Unknown
Speed
Unknown
Apparent Right ascension
Unknown
Apparent Declination
Unknown
Sunlit
N/A
Visualization observer readout
Local Sidereal Time
19:51:20
Azimuth
Unknown
Elevation
Unknown
Doppler factor
Unknown
Orbital elements
Apogee altitude
149.138 km
Perigee altitude
143.168 km
Semi-major axis
6,524.29 km
Eccentricity
0.00046
Inclination
53.0157°
RAAN
89.2143°
Arg. of periapsis
320.6925°
True anomaly
125.74796°
Mean anomaly
125.7054°
Eccentric anomaly
125.72668°
Mean motion
4.11854 °/min
Orbital period
87.41 mins
BSTAR
0.00038925
Loading maneuver chart data...
Computing Atmospheric mass density...
Loading historical data...
Loading historical data...
Loading historical data...
Loading historical data...
Loading historical data...
Loading historical data...
Loading historical data...

Documentation

Showing up to 5 results
|